Oregon State Current Weather Observations

 
 ASUS46 KPQR 140310
 RWROR 
 
 OREGON REGIONAL WEATHER ROUNDUP
 NATIONAL WEATHER SERVICE PORTLAND OR
 800 PM PDT SUN OCT 13 2019
 
 NOTE: "FAIR" INDICATES FEW OR NO CLOUDS BELOW 12,000 FEET WITH
 NO SIGNIFICANT WEATHER AND/OR OBSTRUCTIONS TO VISIBILITY.
 
 ORZ001>013-140400-
 NORTHWEST OREGON
 
   
 CITY           SKY/WX    TMP DP  RH WIND       PRES   REMARKS
 ASTORIA        CLEAR     46  44  93 SW3       30.03R                  
 TILLAMOOK      CLEAR     50  46  87 CALM      30.05R                  
 NEWPORT        CLEAR     46  45  93 CALM        N/A                   
 PORTLAND       MOCLDY    56  46  69 NW5       30.00R                  
 VANCOUVER WA   MOCLDY    57  46  66 NW3       29.99R                  
 SCAPPOOSE      CLEAR     53  44  71 N5        29.99S                  
 HILLSBORO      CLEAR     51  43  74 CALM      30.00R                  
 AURORA         CLOUDY    56  44  64 N5        30.00R                  
 MCMINNVILLE    CLEAR     53  44  71 NW7       30.00R                  
 SALEM          CLOUDY    55  43  63 NW8       29.99R                  
 CORVALLIS      CLOUDY    54  48  80 NW8       30.00R                  
 EUGENE         CLOUDY    58  47  66 N5        29.99R                  
 CRESWELL       CLOUDY    55  48  76 CALM      29.98R                  
 
ORZ021-028-140400- SOUTHWEST OREGON CITY SKY/WX TMP DP RH WIND PRES REMARKS NORTH BEND CLOUDY 55 49 80 N17 30.03R BROOKINGS CLEAR 52 48 86 SE3 29.92R ROSEBURG CLEAR 58 46 64 N5 29.97R SEXTON SUMMIT CLEAR 47 40 76 N9 29.96R GRANTS PASS FAIR 61 45 55 NW7 29.95R MEDFORD CLEAR 57 40 52 NE7 29.91R
ORZ014>016-041-140400- COLUMBIA GORGE CITY SKY/WX TMP DP RH WIND PRES REMARKS TROUTDALE MOCLDY 56 45 66 CALM 29.99R HOOD RIVER MOCLDY 52 41 66 CALM 29.97R THE DALLES CLEAR 57 40 52 W9 29.94R
ORZ029>031-041-044-049-050-061>064-502-503-505>511-140400- EASTERN OREGON CITY SKY/WX TMP DP RH WIND PRES REMARKS MADRAS NOT AVBL REDMOND CLEAR 49 40 71 N7 29.94R BEND CLEAR 50 43 76 CALM 29.94R PRINEVILLE CLEAR 50 41 71 N8 29.94R KLAMATH FALLS CLEAR 52 25 35 N9 29.93R LAKEVIEW CLEAR 39 26 59 NE3 29.95R HERMISTON MOCLDY 52 33 48 SE3 29.89S PENDLETON CLOUDY 54 29 38 S3 29.90S JOHN DAY MOCLDY 54 40 59 CALM 29.93R MEACHAM CLOUDY 44 38 79 CALM 29.93S LA GRANDE CLOUDY 53 33 46 NW8 29.93R BAKER CITY CLOUDY 45 31 58 S3 29.91R BURNS CLEAR 47 23 38 NW7 29.90R ROME N/A 43 13 29 SE6 29.88R ONTARIO PTCLDY 49 27 42 W3 29.89R

Data from: http://www.wrh.noaa.gov/sew/get.php?pil=RWR&sid=OR&version=0&format=printer

Current Observations

Current Weather Conditions by Major Highway
Washington State Current Weather Observations   …  Oregon State Current Weather Observation



48 Hour Forecast


Seattle  …  Vancouver  …  Portland
————————————————————————————————————————
Bend  …  Spokane  …  Richland  …  Pendleton  …  Blue Mountains I-84  …  Yakima
————————————————————————————————————————
Goldendale, Washington Higher Elevations  …  Dallesport Airport - Goldendale  …  Bingen - White Salmon - Hood River  …  Index





Top of Page